When you browse on this site, cookies collect data to enhance your experience and personalize the content and advertising you see.
Visit our Privacy Policy to learn more. By continuing to use the site, you agree to this use of cookies and data.
  • In Österreich
  • Länderverzeichnis
  • Für 7 Tage
  • Wassertemperatur
  • Wetterkarte
  • News
  • Widgets
  • user-avatar
    Anmelden

    Stündliche Wetter Otrozhnyy

    Heute, 7 Juni, Sonntag

    Zeit Temperatur Niederschläge Wind Luftdruck Luftfeuchtigkeit
    00:00 +15°C° 0 mm 1 m/S 747 mmHg 88%
    01:00 +14°C° 0 mm 1 m/S 747 mmHg 88%
    02:00 +14°C° 0 mm 1 m/S 747 mmHg 89%
    03:00 +14°C° 0 mm 1 m/S 748 mmHg 89%
    04:00 +14°C° 0 mm 1 m/S 748 mmHg 89%
    05:00 +15°C° 0 mm 2 m/S 748 mmHg 86%
    06:00 +16°C° 0 mm 2 m/S 748 mmHg 83%
    07:00 +18°C° 0 mm 2 m/S 748 mmHg 80%
    08:00 +19°C° 0.3 mm 3 m/S 748 mmHg 77%
    09:00 +20°C° 0.3 mm 3 m/S 748 mmHg 73%
    10:00 +21°C° 0.3 mm 4 m/S 748 mmHg 70%
    11:00 +21°C° 0.9 mm 4 m/S 748 mmHg 71%
    12:00 +21°C° 0.9 mm 4 m/S 748 mmHg 73%
    13:00 +20°C° 0.9 mm 4 m/S 748 mmHg 74%
    14:00 +20°C° 0.2 mm 3 m/S 748 mmHg 76%
    15:00 +19°C° 0.2 mm 2 m/S 748 mmHg 78%
    16:00 +18°C° 0.2 mm 2 m/S 748 mmHg 81%
    17:00 +18°C° 0.4 mm 2 m/S 748 mmHg 83%
    18:00 +18°C° 0.4 mm 3 m/S 747 mmHg 85%
    19:00 +18°C° 0.4 mm 4 m/S 747 mmHg 87%
    20:00 +17°C° 1.2 mm 4 m/S 747 mmHg 89%
    21:00 +17°C° 1.2 mm 3 m/S 747 mmHg 92%
    22:00 +16°C° 1.2 mm 3 m/S 748 mmHg 95%
    23:00 +16°C° 0.5 mm 3 m/S 747 mmHg 95%

    Morgen, 8 Juni, Montag

    Zeit Temperatur Niederschläge Wind Luftdruck Luftfeuchtigkeit
    00:00 +16°C° 0.5 mm 3 m/S 747 mmHg 94%
    01:00 +16°C° 0.5 mm 3 m/S 747 mmHg 94%
    02:00 +16°C° 0.2 mm 3 m/S 747 mmHg 94%
    03:00 +16°C° 0.2 mm 3 m/S 747 mmHg 93%
    04:00 +16°C° 0.2 mm 3 m/S 748 mmHg 93%
    05:00 +16°C° 0.5 mm 3 m/S 748 mmHg 91%
    06:00 +17°C° 0.5 mm 4 m/S 748 mmHg 88%
    07:00 +17°C° 0.5 mm 4 m/S 748 mmHg 86%
    08:00 +17°C° 0.7 mm 5 m/S 748 mmHg 81%
    09:00 +19°C° 0.7 mm 6 m/S 748 mmHg 75%
    10:00 +21°C° 0.7 mm 6 m/S 748 mmHg 70%
    11:00 +21°C° 0.5 mm 6 m/S 748 mmHg 69%
    12:00 +21°C° 0.5 mm 5 m/S 748 mmHg 68%
    13:00 +21°C° 0.5 mm 5 m/S 748 mmHg 68%
    14:00 +22°C° 0.1 mm 5 m/S 748 mmHg 63%
    15:00 +23°C° 0.1 mm 5 m/S 748 mmHg 58%
    16:00 +25°C° 0.1 mm 5 m/S 748 mmHg 53%
    17:00 +23°C° 0 mm 5 m/S 748 mmHg 57%
    18:00 +22°C° 0 mm 4 m/S 748 mmHg 60%
    19:00 +22°C° 0 mm 4 m/S 748 mmHg 63%
    20:00 +21°C° 0 mm 3 m/S 748 mmHg 62%
    21:00 +20°C° 0 mm 3 m/S 748 mmHg 62%
    22:00 +19°C° 0 mm 3 m/S 748 mmHg 61%
    23:00 +19°C° 0 mm 4 m/S 748 mmHg 61%

    übermorgen, 9 Juni, Dienstag

    Zeit Temperatur Niederschläge Wind Luftdruck Luftfeuchtigkeit
    00:00 +19°C° 0 mm 5 m/S 748 mmHg 61%
    01:00 +19°C° 0 mm 5 m/S 748 mmHg 61%
    02:00 +17°C° 0 mm 5 m/S 749 mmHg 59%
    03:00 +17°C° 0 mm 6 m/S 749 mmHg 58%
    04:00 +16°C° 0 mm 6 m/S 749 mmHg 57%
    05:00 +17°C° 0 mm 6 m/S 750 mmHg 58%
    06:00 +17°C° 0 mm 6 m/S 750 mmHg 59%
    07:00 +19°C° 0 mm 6 m/S 750 mmHg 60%
    08:00 +21°C° 0 mm 7 m/S 751 mmHg 56%
    09:00 +23°C° 0 mm 7 m/S 751 mmHg 51%
    10:00 +26°C° 0 mm 7 m/S 751 mmHg 47%
    11:00 +26°C° 0 mm 7 m/S 751 mmHg 45%
    12:00 +27°C° 0 mm 7 m/S 751 mmHg 42%
    13:00 +28°C° 0 mm 7 m/S 752 mmHg 40%
    14:00 +28°C° 0 mm 7 m/S 751 mmHg 41%
    15:00 +28°C° 0 mm 6 m/S 751 mmHg 41%
    16:00 +28°C° 0 mm 6 m/S 751 mmHg 42%
    17:00 +27°C° 0 mm 6 m/S 751 mmHg 48%
    18:00 +26°C° 0 mm 5 m/S 751 mmHg 53%
    19:00 +25°C° 0 mm 5 m/S 751 mmHg 59%
    20:00 +23°C° 0 mm 5 m/S 751 mmHg 59%
    21:00 +21°C° 0 mm 5 m/S 751 mmHg 59%
    22:00 +20°C° 0 mm 5 m/S 751 mmHg 59%
    23:00 +20°C° 0 mm 4 m/S 751 mmHg 59%

    10 Juni, Mittwoch

    Zeit Temperatur Niederschläge Wind Luftdruck Luftfeuchtigkeit
    00:00 +19°C° 0 mm 4 m/S 751 mmHg 60%
    01:00 +18°C° 0 mm 4 m/S 751 mmHg 60%
    02:00 +18°C° 0 mm 4 m/S 751 mmHg 62%
    03:00 +18°C° 0 mm 4 m/S 751 mmHg 64%
    04:00 +17°C° 0 mm 4 m/S 751 mmHg 66%
    05:00 +18°C° 0 mm 4 m/S 751 mmHg 65%
    06:00 +19°C° 0 mm 4 m/S 751 mmHg 64%
    07:00 +20°C° 0 mm 5 m/S 752 mmHg 63%
    08:00 +22°C° 0 mm 5 m/S 752 mmHg 58%
    09:00 +25°C° 0 mm 5 m/S 752 mmHg 54%
    10:00 +26°C° 0 mm 6 m/S 752 mmHg 49%
    11:00 +27°C° 0 mm 6 m/S 752 mmHg 47%
    12:00 +28°C° 0 mm 6 m/S 752 mmHg 45%
    13:00 +29°C° 0 mm 6 m/S 752 mmHg 44%
    14:00 +28°C° 0 mm 5 m/S 752 mmHg 45%
    15:00 +28°C° 0 mm 5 m/S 752 mmHg 46%
    16:00 +28°C° 0 mm 4 m/S 751 mmHg 47%
    17:00 +27°C° 0 mm 3 m/S 751 mmHg 51%
    18:00 +26°C° 0 mm 3 m/S 751 mmHg 54%
    19:00 +26°C° 0 mm 2 m/S 751 mmHg 58%
    20:00 +25°C° 0 mm 3 m/S 751 mmHg 57%
    21:00 +24°C° 0 mm 3 m/S 751 mmHg 57%
    22:00 +21°C° 0 mm 4 m/S 751 mmHg 56%
    23:00 +21°C° 0 mm 4 m/S 751 mmHg 57%

    11 Juni, Donnerstag

    Zeit Temperatur Niederschläge Wind Luftdruck Luftfeuchtigkeit
    00:00 +21°C° 0 mm 4 m/S 751 mmHg 57%
    01:00 +21°C° 0 mm 4 m/S 751 mmHg 58%
    02:00 +20°C° 0 mm 3 m/S 751 mmHg 59%
    03:00 +20°C° 0 mm 3 m/S 750 mmHg 60%
    04:00 +19°C° 0 mm 3 m/S 750 mmHg 61%
    05:00 +20°C° 0 mm 3 m/S 750 mmHg 62%
    06:00 +21°C° 0 mm 3 m/S 750 mmHg 63%
    07:00 +22°C° 0 mm 3 m/S 750 mmHg 65%
    08:00 +23°C° 0 mm 4 m/S 750 mmHg 60%
    09:00 +26°C° 0 mm 5 m/S 750 mmHg 56%
    10:00 +27°C° 0 mm 5 m/S 750 mmHg 52%
    11:00 +28°C° 0 mm 5 m/S 750 mmHg 49%
    12:00 +29°C° 0 mm 5 m/S 750 mmHg 46%
    13:00 +30°C° 0 mm 4 m/S 750 mmHg 43%
    14:00 +30°C° 0 mm 4 m/S 750 mmHg 43%
    15:00 +32°C° 0 mm 4 m/S 749 mmHg 42%
    16:00 +32°C° 0 mm 4 m/S 749 mmHg 42%
    17:00 +30°C° 0 mm 3 m/S 748 mmHg 46%
    18:00 +29°C° 0 mm 3 m/S 748 mmHg 50%
    19:00 +28°C° 0 mm 2 m/S 748 mmHg 54%
    20:00 +27°C° 0 mm 2 m/S 748 mmHg 55%
    21:00 +25°C° 0 mm 2 m/S 748 mmHg 55%
    22:00 +24°C° 0 mm 2 m/S 747 mmHg 56%
    23:00 +23°C° 0 mm 2 m/S 747 mmHg 57%

    12 Juni, Freitag

    Zeit Temperatur Niederschläge Wind Luftdruck Luftfeuchtigkeit
    00:00 +23°C° 0 mm 2 m/S 747 mmHg 57%
    01:00 +21°C° 0 mm 2 m/S 747 mmHg 57%
    02:00 +21°C° 0.3 mm 2 m/S 747 mmHg 58%
    03:00 +20°C° 0.3 mm 2 m/S 746 mmHg 59%
    04:00 +19°C° 0.3 mm 2 m/S 746 mmHg 59%
    05:00 +20°C° 0.1 mm 2 m/S 746 mmHg 59%
    06:00 +21°C° 0.1 mm 2 m/S 746 mmHg 58%
    07:00 +23°C° 0.1 mm 2 m/S 746 mmHg 57%
    08:00 +25°C° 0.2 mm 2 m/S 746 mmHg 56%
    09:00 +26°C° 0.2 mm 2 m/S 746 mmHg 54%
    10:00 +27°C° 0.2 mm 3 m/S 746 mmHg 52%
    11:00 +28°C° 0 mm 3 m/S 746 mmHg 49%
    12:00 +29°C° 0 mm 3 m/S 745 mmHg 46%
    13:00 +30°C° 0 mm 3 m/S 745 mmHg 43%
    14:00 +31°C° 0 mm 3 m/S 745 mmHg 42%
    15:00 +32°C° 0 mm 4 m/S 744 mmHg 41%
    16:00 +32°C° 0 mm 4 m/S 744 mmHg 40%
    17:00 +30°C° 0 mm 3 m/S 744 mmHg 46%
    18:00 +29°C° 0 mm 2 m/S 743 mmHg 52%
    19:00 +28°C° 0 mm 2 m/S 743 mmHg 57%
    20:00 +26°C° 0.9 mm 3 m/S 743 mmHg 62%
    21:00 +22°C° 0.9 mm 4 m/S 743 mmHg 67%
    22:00 +19°C° 0.9 mm 5 m/S 743 mmHg 72%
    23:00 +20°C° 0.1 mm 5 m/S 743 mmHg 69%
    Mehr zeigen